PD1VW-10 Weather Reports


Display with metric or nautical units.
time (UTC)temp
F
wind
direction
speed
MPH
gust
MPH
rain 1hr
in
rain 24hr
in
rain mn
in
humidity
%
barometer
mb
20260903065103 65 274 4.0 11.0 0.01 0.13 0.10 98 1015.5
20260903064041 65 257 2.0 8.0 0.01 0.13 0.10 98 1015.4
20260903063058 65 267 1.0 8.0 0.01 0.13 0.10 99 1015.3
20260903062036 65 257 5.0 9.0 0.01 0.12 0.09 98 1015.4
20260903061033 65 0.0 0.0 0.01 0.12 0.09 98 1015.3
20260903060050 65 0.0 0.0 0.01 0.12 0.09 98 1015.2
20260903055027 65 216 5.0 11.0 0.01 0.12 0.09 98 1015.4
20260903054044 65 0.0 0.0 0.01 0.12 0.09 98 1015.3
20260903053022 65 237 0.0 2.0 0.01 0.12 0.09 98 1015.4
20260903052019 65 0.0 0.0 0.00 0.11 0.08 99 1015.5
20260903051017 65 0.0 0.0 0.00 0.11 0.08 99 1015.3
20260903050045 65 238 2.0 6.0 0.00 0.11 0.08 99 1015.3
20260903045042 64 0.0 0.0 0.00 0.11 0.08 99 1015.2
20260903044040 64 206 4.0 7.0 0.00 0.11 0.08 99 1015.3
20260903043037 64 159 3.0 6.0 0.00 0.11 0.08 99 1015.1
20260903042035 64 190 3.0 6.0 0.00 0.11 0.08 99 1015.1
20260903041032 64 151 4.0 6.0 0.00 0.11 0.08 99 1015.2
20260903040109 64 167 4.0 7.0 0.00 0.11 0.08 99 1015.2
20260903035026 64 141 7.0 9.0 0.01 0.11 0.08 99 1015.3
20260903034024 64 195 4.0 9.0 0.01 0.11 0.08 99 1015.5
20260903033022 63 216 5.0 8.0 0.01 0.11 0.08 99 1015.5
20260903032019 63 210 5.0 9.0 0.02 0.11 0.08 98 1015.6
20260903031036 63 210 4.0 8.0 0.02 0.11 0.08 98 1015.9
20260903030044 64 198 5.0 9.0 0.02 0.11 0.08 98 1015.9
20260903025042 64 216 7.0 9.0 0.01 0.10 0.07 98 1015.7
20260903024039 64 218 3.0 6.0 0.01 0.10 0.07 98 1015.9
20260903023037 63 172 4.0 6.0 0.01 0.10 0.07 98 1016.0
20260903022034 63 166 7.0 10.0 0.00 0.09 0.06 98 1016.1
20260903021031 63 167 4.0 8.0 0.00 0.09 0.06 98 1016.0
20260903020029 63 199 5.0 7.0 0.01 0.09 0.06 98 1016.2
20260903015027 63 177 5.0 6.0 0.02 0.09 0.06 98 1016.1
20260903014024 62 176 5.0 11.0 0.04 0.09 0.06 97 1016.3
20260903013022 63 214 6.0 8.0 0.04 0.09 0.06 97 1016.5
20260903012019 63 226 6.0 8.0 0.04 0.09 0.06 97 1016.6
20260903011017 63 199 5.0 6.0 0.05 0.09 0.06 96 1016.8
20260903010044 63 237 7.0 11.0 0.04 0.08 0.05 96 1016.6
20260903005042 62 208 7.0 14.0 0.03 0.07 0.04 95 1016.9
20260903004039 62 222 7.0 11.0 0.01 0.05 0.02 94 1017.1
20260903003056 63 191 4.0 7.0 0.01 0.05 0.02 93 1017.2
20260903002033 63 209 4.0 7.0 0.01 0.05 0.02 91 1017.3
20260903001030 63 223 5.0 9.0 0.00 0.04 0.01 89 1017.3
20260903000027 63 223 4.0 6.0 0.00 0.04 0.01 88 1017.2
20260902235024 63 215 2.0 3.0 0.00 0.04 0.01 88 1017.4
20260902234022 63 218 4.0 7.0 0.00 0.04 0.01 89 1017.4
20260902233020 63 184 6.0 9.0 0.00 0.04 0.01 89 1017.4
20260902232057 62 146 8.0 10.0 0.00 0.04 0.01 90 1017.7
20260902231105 62 180 6.0 9.0 0.00 0.04 0.01 91 1017.9
20260902230043 63 171 5.0 7.0 0.01 0.04 0.01 90 1018.3
20260902225040 63 173 7.0 9.0 0.01 0.04 0.01 90 1018.2
20260902224038 63 181 6.0 10.0 0.01 0.04 0.01 90 1018.2
20260902223035 63 174 4.0 7.0 0.01 0.04 0.01 89 1018.4
20260902222032 63 241 5.0 8.0 0.01 0.04 0.01 89 1018.3
20260902221030 62 244 8.0 11.0 0.01 0.04 0.01 90 1018.7
20260902220027 62 182 4.0 6.0 0.00 0.03 0.03 92 1018.9
20260902215025 61 149 3.0 4.0 0.00 0.03 0.03 93 1018.7
20260902214022 61 177 4.0 6.0 0.00 0.03 0.03 93 1018.9
20260902213019 61 207 5.0 7.0 0.00 0.03 0.03 94 1018.8
20260902212017 61 216 2.0 3.0 0.01 0.03 0.03 93 1019.2
20260902211045 61 219 5.0 7.0 0.01 0.03 0.03 92 1019.4
20260902210042 62 214 11.0 14.0 0.01 0.03 0.03 89 1019.4
20260902205040 63 235 11.0 14.0 0.01 0.03 0.03 84 1019.3
20260902204117 62 223 5.0 9.0 0.01 0.03 0.03 86 1019.3
20260902203035 62 211 4.0 6.0 0.01 0.03 0.03 91 1019.2
20260902202032 62 158 6.0 11.0 0.00 0.02 0.02 94 1019.2
20260902201030 62 164 6.0 9.0 0.00 0.02 0.02 95 1019.4
20260902200026 62 170 6.0 9.0 0.00 0.02 0.02 95 1019.7
20260902195024 62 180 7.0 9.0 0.00 0.02 0.02 95 1019.5
20260902194022 62 164 7.0 8.0 0.00 0.02 0.02 94 1019.5
20260902193019 62 174 8.0 9.0 0.00 0.02 0.02 94 1019.6
20260902192016 61 162 6.0 7.0 0.00 0.02 0.02 94 1019.8
20260902191043 61 151 5.0 6.0 0.01 0.02 0.02 95 1019.9
20260902190041 61 173 5.0 6.0 0.02 0.02 0.02 95 1019.8
20260902185038 62 172 5.0 7.0 0.02 0.02 0.02 94 1019.8
20260902184035 62 164 3.0 6.0 0.02 0.02 0.02 93 1020.1
20260902183032 62 190 3.0 7.0 0.02 0.02 0.02 92 1020.2
20260902182030 62 223 4.0 7.0 0.02 0.02 0.02 90 1020.3
20260902181027 65 248 7.0 13.0 0.01 0.01 0.01 83 1020.2
20260902180025 66 220 3.0 6.0 0.00 0.00 0.00 80 1020.0
20260902175042 66 249 2.0 7.0 0.00 0.00 0.00 78 1020.0
20260902174020 66 181 0.0 2.0 0.00 0.00 0.00 78 1019.8
20260902173017 66 210 4.0 9.0 0.00 0.00 0.00 78 1020.0
20260902172045 66 253 3.0 7.0 0.00 0.00 0.00 78 1020.1
20260902171042 66 0.0 0.0 0.00 0.00 0.00 79 1020.2
20260902170040 67 247 5.0 7.0 0.00 0.00 0.00 78 1020.1
20260902165037 67 179 1.0 4.0 0.00 0.00 0.00 78 1020.2
20260902164034 67 178 2.0 6.0 0.00 0.00 0.00 77 1020.2
20260902163032 67 215 3.0 3.0 0.00 0.00 0.00 77 1020.3
20260902162029 67 245 6.0 8.0 0.00 0.00 0.00 77 1020.2
20260902161028 67 207 5.0 8.0 0.00 0.00 0.00 76 1020.4
20260902160024 68 210 4.0 6.0 0.00 0.00 0.00 77 1020.1
20260902155042 67 261 3.0 8.0 0.00 0.00 0.00 76 1020.6
20260902154019 68 198 3.0 7.0 0.00 0.00 0.00 75 1020.5
20260902153015 68 217 2.0 6.0 0.00 0.00 0.00 74 1020.6
20260902152103 68 247 4.0 6.0 0.00 0.00 0.00 74 1020.7
20260902151039 68 265 8.0 13.0 0.00 0.00 0.00 73 1020.8
20260902150037 69 249 4.0 6.0 0.00 0.00 0.00 72 1020.8
20260902145035 69 196 0.0 1.0 0.00 0.00 0.00 72 1021.0
20260902144051 69 238 4.0 8.0 0.00 0.00 0.00 72 1020.8
20260902143028 69 254 7.0 11.0 0.00 0.00 0.00 70 1020.8
20260902142025 69 239 8.0 14.0 0.00 0.00 0.00 70 1021.0
20260902141022 69 242 2.0 8.0 0.00 0.00 0.00 69 1020.8
20260902140019 69 239 5.0 9.0 0.00 0.00 0.00 69 1020.8
20260902135016 69 246 9.0 13.0 0.00 0.00 0.00 68 1020.8
20260902134103 70 241 5.0 10.0 0.00 0.00 0.00 68 1020.8
20260902133040 70 241 9.0 13.0 0.00 0.00 0.00 67 1020.8
20260902132037 69 226 10.0 15.0 0.00 0.00 0.00 68 1020.6
20260902131034 69 258 3.0 9.0 0.00 0.00 0.00 70 1020.7
20260902130031 69 236 4.0 9.0 0.00 0.00 0.00 69 1020.6
20260902125028 70 253 6.0 10.0 0.00 0.00 0.00 68 1020.5
20260902124025 69 253 4.0 9.0 0.00 0.00 0.00 70 1020.7
20260902123043 70 237 5.0 8.0 0.00 0.00 0.00 68 1020.8
20260902122020 69 245 9.0 11.0 0.00 0.00 0.00 69 1020.7
20260902121017 69 260 5.0 9.0 0.00 0.00 0.00 70 1020.9
20260902120044 68 233 7.0 13.0 0.00 0.00 0.00 71 1020.8
20260902115042 69 188 1.0 4.0 0.00 0.00 0.00 72 1020.9
20260902114039 68 246 2.0 6.0 0.00 0.00 0.00 72 1020.8
20260902113037 69 251 7.0 9.0 0.00 0.00 0.00 71 1021.0
20260902112034 69 265 4.0 9.0 0.00 0.00 0.00 72 1021.0
20260902111031 69 227 2.0 8.0 0.00 0.00 0.00 72 1020.9
20260902110028 69 268 4.0 9.0 0.00 0.00 0.00 71 1020.8
20260902105045 68 256 6.0 11.0 0.00 0.00 0.00 74 1021.1
20260902104022 69 307 3.0 7.0 0.00 0.00 0.00 73 1021.1
20260902103019 69 250 3.0 8.0 0.00 0.00 0.00 73 1021.0
20260902102016 68 256 4.0 8.0 0.00 0.00 0.00 72 1020.9
20260902101043 68 276 6.0 11.0 0.00 0.00 0.00 73 1020.8
20260902100040 68 251 7.0 9.0 0.00 0.00 0.00 74 1020.7
20260902095038 68 270 7.0 10.0 0.00 0.00 0.00 73 1020.7
20260902094035 68 281 9.0 13.0 0.00 0.00 0.00 75 1020.6
20260902093033 68 244 3.0 7.0 0.00 0.00 0.00 75 1020.4
20260902092030 69 201 2.0 4.0 0.00 0.00 0.00 77 1020.7
20260902091028 69 252 6.0 11.0 0.00 0.00 0.00 75 1020.4
20260902090025 69 246 5.0 13.0 0.00 0.00 0.00 72 1020.3
20260902085023 68 259 8.0 14.0 0.00 0.00 0.00 72 1020.6
20260902084100 68 225 1.0 3.0 0.00 0.00 0.00 78 1020.2
20260902083018 69 208 2.0 4.0 0.00 0.00 0.00 80 1020.2
20260902082015 68 210 3.0 6.0 0.00 0.00 0.00 81 1020.0
20260902081043 68 203 3.0 4.0 0.00 0.00 0.00 84 1020.2
20260902080040 67 214 5.0 7.0 0.00 0.00 0.00 85 1020.2
20260902075037 66 189 5.0 7.0 0.00 0.00 0.00 86 1020.1
20260902074054 65 220 5.0 8.0 0.00 0.00 0.00 88 1020.0
20260902073032 64 212 4.0 7.0 0.00 0.00 0.00 90 1020.0
20260902072029 64 202 3.0 4.0 0.00 0.00 0.00 91 1019.8
20260902071026 63 232 3.0 4.0 0.00 0.00 0.00 91 1019.8
20260902070023 62 187 4.0 7.0 0.00 0.00 0.00 92 1019.8